[[{"header":{"parameterUnit":"m.s-1","parameterCategory":1,"la1":30.2991,"la2":30.254,"lo1":-89.0895,"lo2":-89.0444,"dy":0.0017,"dx":0.0017,"nx":28,"ny":28,"refTime":"2023-10-07T09:00:00:Z","depth":0,"parameterNumber":2,"parameterNumberName":"U-component_of_WINDS"},"data":[0,0,0,0,0,0,0,0,0,0,0,0,0,0,0,0,0,0,0,0,0,0,0,0,0,0,0,0,0,0,0,0,0,0,0,0,0,0,0,0,0,0,0,0,0,0,0,0,0,0,0,0,0,0,0,0,0,0,1.0089,1.0088,0,0.9984,0.9983,0.9981,0.9873,0.9872,0.987,0.9869,0.9758,0.9757,0.9755,0,0,0,0,0,0,0,0,0,0,0,0,0,1.0192,1.0191,1.0089,1.0088,1.0086,0.9984,0.9983,0.9981,0.9873,0.9872,0.987,0.9868,0.9759,0.9757,0.9755,0,0,0,0,0,0,0,0,0,0,0,0,0,1.0123,1.0191,1.0089,1.002,1.0013,0.9984,0.9982,0.9981,0.9874,0.9871,0.9869,0.9867,0.9759,0.9757,0.9755,0.9784,0,0,0.9747,0.9746,0,0,0,0,0,0,0,0,1.0127,1.012,1.0032,1.0025,1.0017,0.9939,0.9978,0.9915,0.9874,0.9927,0.9869,0.9866,0.982,0.9812,0.9798,0.9779,0.9774,0.9747,0.9746,0.9745,0.9744,0,0,0,0,0,0,0,1.0132,1.0124,1.0047,1.003,1.0021,0.9993,0.9981,0.9966,0.9887,0.9922,0.9914,0.9903,0.9815,0.98,0.9794,0.9773,0.9747,0.9745,0.9744,0.9743,0.9772,0.9774,0,0,0,0,0,0,1.0148,1.0128,1.005,1.0044,1.0068,0.9993,0.998,0.9966,0.9887,0.9873,0.9905,0.9898,0.9805,0.9797,0.979,0.9818,0.9745,0.9743,0.9741,0.977,0.9772,0.9775,0,0,0,0,0,0,1.0151,1.0142,1.0055,1.0084,1.0071,0.9994,0.998,0.9965,0.995,0.9874,0.9859,0.9904,0.9803,0.9793,0.9786,0.9813,0.9741,0.9739,0.9767,0.977,0.9773,0.9876,0,0,0,0,0,0,1.0154,1.0144,1.0155,1.0085,1.007,1.0055,0.9982,0.9965,0.9947,0.9937,0.9869,0.9856,0.9801,0.9791,0.9784,0.9808,0.9738,0.9764,0.9769,0.9772,0.987,0.9883,0.9894,0,0,0,0,0,1.0158,1.0188,1.0156,1.0148,1.0082,1.0056,1.0047,0.9984,0.9949,0.9959,0.991,0.9858,0.9812,0.9791,0.9783,0.9807,0.9762,0.9767,0.9772,0.9865,0.988,0.9893,0,0,0,0,0,0,1.0262,1.0178,1.0142,1.015,1.0111,1.0038,1.0049,1.0003,0.9972,0.9964,0.9886,0.9872,0.9874,0.9839,0.9818,0.983,0.9779,0.9783,0.9853,0.9867,0.9878,0.9886,0.9736,0,0,0,0,0,1.0287,1.0274,1.02,1.0214,1.0196,1.0127,1.0113,1.0067,1.0024,1.0007,0.9957,0.9916,0.9892,0.9877,0.9851,0.9865,0.9848,0.9877,0.9889,0.9899,0.9903,0.9906,0.9918,0.9791,0.9791,0.9791,0,0,1.0336,1.0288,1.0284,1.0234,1.0198,1.0185,1.0113,1.0103,1.0092,1.0005,0.9995,0.9958,0.9906,0.991,0.9909,0.9881,0.9934,0.9905,0.9914,0.9912,0.9912,0.9924,0.9935,0.9794,0.9794,0.9793,0,0,1.0418,1.0382,1.0389,1.0355,1.0303,1.0256,1.0258,1.0192,1.0164,1.0154,1.0088,1.0073,1.0034,0.9999,0.9977,1.0047,0.9997,1.004,1.0101,1.0105,1.0115,1.0123,1.0147,1.0156,1.0044,1.0045,1.0045,0,1.0486,1.0465,1.0398,1.0392,1.0371,1.0292,1.0298,1.0268,1.021,1.0197,1.0167,1.0115,1.0075,1.0069,1.0086,1.0071,1.007,1.0047,1.0119,1.0127,1.0134,1.0155,1.0164,1.005,1.0049,1.0049,1.0048,0,1.055,1.0536,1.0548,1.0495,1.0475,1.0475,1.0407,1.0395,1.0352,1.0308,1.0297,1.0247,1.0208,1.0204,1.0161,1.0191,1.0175,1.0134,1.008,1.0153,1.0171,1.0179,1.0058,1.0056,1.0054,1.0053,0,0,1.0694,1.0605,1.061,1.0584,1.0521,1.0508,1.0504,1.0468,1.0458,1.0421,1.0414,1.0383,1.0343,1.0318,1.027,1.0274,1.0331,1.0231,1.0229,1.0251,1.036,1.0391,1.0402,1.0298,1.03,1.0301,1.0364,0,1.0765,1.0754,1.0694,1.07,1.0685,1.0611,1.0607,1.0567,1.0526,1.0506,1.046,1.0439,1.0389,1.0373,1.0374,1.0324,1.0352,1.0319,1.029,1.0289,1.0304,1.0412,1.0445,1.0507,1.0371,1.0372,1.0373,0,1.0846,1.0815,1.082,1.0756,1.0748,1.0745,1.0706,1.069,1.0642,1.0612,1.0584,1.0531,1.052,1.0472,1.0456,1.0435,1.0419,1.0393,1.0394,1.0388,1.0335,1.0407,1.0525,1.0534,1.0384,1.0383,1.0382,0,1.095,1.0909,1.0906,1.0886,1.0812,1.0812,1.0781,1.0732,1.0713,1.0679,1.0666,1.0631,1.0611,1.0585,1.0523,1.0494,1.0513,1.046,1.0486,1.0488,1.0493,1.0493,1.0609,1.0486,1.0485,1.0485,1.0485,0,1.1035,1.104,1.0951,1.095,1.0953,1.0884,1.0888,1.085,1.0807,1.0795,1.0728,1.0718,1.0638,1.0619,1.057,1.0563,1.0555,1.0529,1.0516,1.0535,1.0538,1.0522,1.0516,1.0488,1.0487,1.0487,1.0486,0,1.1151,1.1092,1.1083,1.1014,1.0997,1.1003,1.0942,1.0937,1.0892,1.0878,1.0871,1.0799,1.0773,1.0709,1.0666,1.0633,1.0638,1.0615,1.0655,1.0646,1.0676,1.0674,1.0784,1.0795,1.0667,1.0668,1.067,0,1.1208,1.1211,1.1142,1.113,1.1102,1.1083,1.1064,1.0996,1.0979,1.0925,1.0926,1.0894,1.0865,1.0827,1.077,1.0736,1.071,1.0752,1.0705,1.0723,1.0709,1.0709,1.0709,1.0762,1.0764,1.0765,1.0766,0,1.1316,1.1286,1.1262,1.1228,1.1207,1.1177,1.1142,1.1136,1.1059,1.1042,1.1015,1.0993,1.0949,1.0918,1.0875,1.0841,1.079,1.0782,1.0785,1.0804,1.0826,1.0813,1.0682,1.0779,1.0778,1.0777,1.0776,1.0776,1.1403,1.1401,1.1353,1.1328,1.1295,1.1264,1.1256,1.121,1.1186,1.1146,1.1107,1.1083,1.1034,1.0972,1.0942,1.0921,1.0895,1.0902,1.0903,1.0905,1.0913,1.0831,1.0913,1.0913,1.0913,1.0912,1.0912,0,1.1505,1.1471,1.1449,1.1403,1.1383,1.1339,1.1298,1.1284,1.1265,1.1224,1.1197,1.1166,1.1135,1.1077,1.1041,1.1035,1.1011,1.1028,1.1027,1.102,1.0939,1.0938,1.1048,1.1048,1.1048,1.1048,1.1048,1.1048,1.1557,1.1551,1.1516,1.1493,1.1458,1.1435,1.1416,1.1387,1.1354,1.1322,1.1297,1.1259,1.1211,1.1171,1.1141,1.1124,1.1113,1.1138,1.1113,1.1039,1.1026,1.1013,1.1012,1.1136,1.1136,1.1195,1.1196,1.1196]},{"header":{"parameterUnit":"m.s-1","parameterCategory":1,"la1":30.2991,"la2":30.254,"lo1":-89.0895,"lo2":-89.0444,"dy":0.0017,"dx":0.0017,"nx":28,"ny":28,"refTime":"2023-10-07T09:00:00:Z","depth":0,"parameterNumber":3,"parameterNumberName":"V-component_of_WINDS"},"data":[0,0,0,0,0,0,0,0,0,0,0,0,0,0,0,0,0,0,0,0,0,0,0,0,0,0,0,0,0,0,0,0,0,0,0,0,0,0,0,0,0,0,0,0,0,0,0,0,0,0,0,0,0,0,0,0,0,0,-1.5229,-1.5229,0,-1.5246,-1.5246,-1.5247,-1.5234,-1.5233,-1.5233,-1.5232,-1.5248,-1.5249,-1.525,0,0,0,0,0,0,0,0,0,0,0,0,0,-1.5182,-1.5183,-1.5229,-1.5229,-1.5229,-1.5246,-1.5246,-1.5247,-1.5234,-1.5233,-1.5233,-1.5232,-1.5248,-1.5249,-1.525,0,0,0,0,0,0,0,0,0,0,0,0,0,-1.5201,-1.5183,-1.5228,-1.5225,-1.5225,-1.5246,-1.5246,-1.5247,-1.5234,-1.5233,-1.5232,-1.5232,-1.5247,-1.5249,-1.525,-1.5276,0,0,-1.5255,-1.5255,0,0,0,0,0,0,0,0,-1.52,-1.5203,-1.5225,-1.5225,-1.5225,-1.5237,-1.5236,-1.5256,-1.5234,-1.523,-1.5232,-1.5231,-1.5245,-1.5247,-1.5252,-1.5276,-1.5277,-1.5255,-1.5256,-1.5256,-1.5257,0,0,0,0,0,0,0,-1.5199,-1.5202,-1.5235,-1.5225,-1.5225,-1.5222,-1.5223,-1.524,-1.5242,-1.5231,-1.523,-1.5232,-1.5245,-1.525,-1.5252,-1.5277,-1.5255,-1.5256,-1.5257,-1.5257,-1.5324,-1.5325,0,0,0,0,0,0,-1.5198,-1.5201,-1.5235,-1.5236,-1.521,-1.5223,-1.5225,-1.5234,-1.5242,-1.5242,-1.5233,-1.5232,-1.5248,-1.525,-1.5252,-1.5282,-1.5256,-1.5257,-1.5258,-1.5323,-1.5324,-1.5325,0,0,0,0,0,0,-1.5197,-1.5201,-1.5234,-1.5218,-1.5222,-1.5225,-1.5235,-1.5235,-1.524,-1.5244,-1.5244,-1.5238,-1.5248,-1.525,-1.527,-1.5283,-1.5258,-1.5259,-1.5322,-1.5323,-1.5325,-1.5343,0,0,0,0,0,0,-1.5196,-1.5201,-1.5211,-1.5219,-1.5223,-1.5252,-1.5236,-1.5236,-1.5243,-1.5241,-1.5249,-1.5249,-1.5247,-1.5268,-1.5272,-1.5284,-1.526,-1.5321,-1.5323,-1.5324,-1.5341,-1.5345,-1.5348,0,0,0,0,0,-1.5194,-1.5215,-1.5212,-1.5216,-1.5236,-1.5253,-1.5255,-1.5254,-1.5244,-1.5254,-1.5256,-1.5249,-1.5281,-1.527,-1.5274,-1.5287,-1.532,-1.5322,-1.5324,-1.534,-1.5344,-1.5348,0,0,0,0,0,0,-1.5208,-1.5216,-1.5212,-1.5236,-1.5244,-1.5251,-1.5263,-1.5258,-1.5268,-1.5266,-1.5263,-1.5265,-1.5286,-1.5289,-1.5276,-1.5313,-1.5299,-1.5302,-1.531,-1.5314,-1.5317,-1.5315,-1.5262,0,0,0,0,0,-1.5214,-1.5227,-1.5234,-1.5254,-1.5259,-1.526,-1.5268,-1.5266,-1.5273,-1.5276,-1.528,-1.5287,-1.5299,-1.5307,-1.5318,-1.5342,-1.5343,-1.5353,-1.5357,-1.5359,-1.5362,-1.5374,-1.5379,-1.5332,-1.5332,-1.5332,0,0,-1.5225,-1.5232,-1.5241,-1.5257,-1.5263,-1.5277,-1.5263,-1.5278,-1.5288,-1.5278,-1.5297,-1.53,-1.5308,-1.533,-1.534,-1.5334,-1.5375,-1.5362,-1.5364,-1.5365,-1.5377,-1.5381,-1.5385,-1.5333,-1.5333,-1.5333,0,0,-1.5254,-1.5261,-1.5279,-1.5285,-1.5295,-1.5296,-1.53,-1.5308,-1.531,-1.5329,-1.5322,-1.5334,-1.5354,-1.536,-1.5366,-1.5398,-1.5391,-1.5402,-1.5419,-1.5431,-1.5435,-1.5438,-1.5449,-1.5453,-1.5404,-1.5404,-1.5404,0,-1.5268,-1.5289,-1.5288,-1.5304,-1.5311,-1.5304,-1.5322,-1.5328,-1.534,-1.5345,-1.5338,-1.5364,-1.5369,-1.5392,-1.54,-1.5405,-1.5409,-1.54,-1.5435,-1.5438,-1.5441,-1.5451,-1.5455,-1.5405,-1.5405,-1.5405,-1.5405,0,-1.5305,-1.5319,-1.5333,-1.5346,-1.5355,-1.5371,-1.5372,-1.5382,-1.5379,-1.5381,-1.5401,-1.5406,-1.5419,-1.5424,-1.5422,-1.5447,-1.5443,-1.5435,-1.5421,-1.5446,-1.5456,-1.546,-1.5407,-1.5407,-1.5406,-1.5406,0,0,-1.5341,-1.5354,-1.5359,-1.5365,-1.5375,-1.5387,-1.5403,-1.5416,-1.5423,-1.5432,-1.5445,-1.5464,-1.5457,-1.5463,-1.5462,-1.5473,-1.5497,-1.5464,-1.5464,-1.5469,-1.5525,-1.553,-1.5535,-1.5494,-1.5494,-1.5495,-1.5524,0,-1.537,-1.5399,-1.5399,-1.5426,-1.5439,-1.5433,-1.5448,-1.5455,-1.5458,-1.5469,-1.5472,-1.5484,-1.5475,-1.5479,-1.549,-1.5492,-1.5508,-1.549,-1.5505,-1.5505,-1.5502,-1.554,-1.5545,-1.5573,-1.5528,-1.5529,-1.5529,0,-1.5407,-1.5418,-1.5446,-1.5455,-1.5461,-1.5474,-1.5485,-1.5497,-1.5505,-1.5506,-1.5514,-1.5511,-1.5527,-1.5514,-1.5536,-1.5523,-1.553,-1.5532,-1.5533,-1.5533,-1.5518,-1.554,-1.5581,-1.5585,-1.5535,-1.5535,-1.5534,0,-1.5429,-1.5452,-1.5471,-1.5477,-1.5488,-1.5497,-1.5502,-1.551,-1.5518,-1.5528,-1.5533,-1.5545,-1.5551,-1.556,-1.556,-1.555,-1.5582,-1.5569,-1.5582,-1.5582,-1.5588,-1.5588,-1.563,-1.5594,-1.5594,-1.5594,-1.5594,0,-1.5461,-1.5478,-1.5482,-1.5494,-1.5513,-1.5513,-1.5532,-1.5536,-1.5543,-1.5556,-1.5552,-1.5563,-1.5563,-1.5574,-1.5574,-1.5592,-1.5595,-1.5596,-1.5596,-1.5596,-1.5596,-1.5599,-1.5597,-1.5595,-1.5595,-1.5595,-1.5594,0,-1.5489,-1.5492,-1.5513,-1.5523,-1.5525,-1.5539,-1.5547,-1.5558,-1.5561,-1.5576,-1.558,-1.5584,-1.5597,-1.5598,-1.5614,-1.5614,-1.5635,-1.5633,-1.5633,-1.5632,-1.5645,-1.5644,-1.569,-1.5696,-1.5657,-1.5658,-1.5658,0,-1.5508,-1.5521,-1.5533,-1.5541,-1.5547,-1.556,-1.5569,-1.557,-1.5578,-1.559,-1.5599,-1.5613,-1.5623,-1.5645,-1.5649,-1.566,-1.5658,-1.5674,-1.566,-1.566,-1.5657,-1.5656,-1.5657,-1.5676,-1.5676,-1.5677,-1.5677,0,-1.5542,-1.5543,-1.5555,-1.5569,-1.5579,-1.5589,-1.5599,-1.5606,-1.5608,-1.5618,-1.5632,-1.564,-1.5657,-1.567,-1.5682,-1.5686,-1.5682,-1.5682,-1.5685,-1.5685,-1.5684,-1.5684,-1.5639,-1.568,-1.568,-1.568,-1.5679,-1.5679,-1.5565,-1.5577,-1.5587,-1.5601,-1.5609,-1.5618,-1.5629,-1.5634,-1.5646,-1.566,-1.566,-1.5675,-1.5684,-1.5699,-1.5705,-1.5717,-1.5711,-1.5717,-1.5718,-1.5719,-1.572,-1.5683,-1.5719,-1.5719,-1.5719,-1.5718,-1.5718,0,-1.5598,-1.5604,-1.5618,-1.5632,-1.5643,-1.5639,-1.565,-1.5659,-1.5673,-1.5682,-1.5693,-1.5709,-1.5722,-1.5728,-1.574,-1.5749,-1.5747,-1.5752,-1.575,-1.5751,-1.5724,-1.572,-1.5753,-1.5753,-1.5753,-1.5753,-1.5753,-1.5753,-1.5616,-1.5636,-1.5638,-1.5662,-1.5668,-1.5684,-1.569,-1.5698,-1.5706,-1.5724,-1.5735,-1.5739,-1.5747,-1.576,-1.5771,-1.5772,-1.5777,-1.5782,-1.5783,-1.5757,-1.5753,-1.575,-1.5746,-1.5784,-1.5784,-1.5809,-1.5809,-1.5809]}]]